User: anonymous   Login
Location: Unspecified
(0.0000°N, 0.0000°E)
Time: 17:02:55
(UTC+00:00)
Language:

Resurs 1-4 - Orbit

View from above orbital plane
View from above orbital plane
View from above satellite
View from above satellite

Ground track
Ground track

The orbit data is extracted from the following two-line orbital elements,

1 25394U 98043A   18174.78718089 -.00000063 +00000-0 -85537-5 0  9990
2 25394 098.6004 114.8401 0000838 357.4248 002.6926 14.24449429037247
Epoch (UTC): 23 June 2018 18:53:32
Eccentricity: 0.0000838
inclination: 98.6004°
perigee height: 810 km
apogee height: 811 km
right ascension of ascending node: 114.8401°
argument of perigee: 357.4248°
revolutions per day: 14.24449429
mean anomaly at epoch: 2.6926°
orbit number at epoch: 3724

The dashed part of the orbit path shows where the satellite is in the earth's shadow,  

DLR